User: anonymous   Login
Location: Lafig�re
(44.4503°N, 4.0357°E)
Time: 16:26:40
(UTC+00:00)
Language:

CREW DRAGON DEMO-1 DEB - Orbit

View from above orbital plane
View from above orbital plane
View from above satellite
View from above satellite

Ground track
Ground track

The orbit data is extracted from the following two-line orbital elements,

1 44064U 19011B   21173.51403102  .00206256  28954-4  39440-3 0  9996
2 44064  51.6174 209.0253 0008234  12.6743 347.4472 16.00083338131238
Epoch (UTC): 22 June 2021 12:20:12
Eccentricity: 0.0008234
inclination: 51.6174°
perigee height: 269 km
apogee height: 279 km
right ascension of ascending node: 209.0253°
argument of perigee: 12.6743°
revolutions per day: 16.00083338
mean anomaly at epoch: 347.4472°
orbit number at epoch: 13123

The dashed part of the orbit path shows where the satellite is in the earth's shadow,  

DLR